Location: Dackenheim
(49.5215°N, 8.1854°E)
Time: 05:23:31
(UTC+00:00)

SPOT 3 Rocket - Pass Details

Date: 19 May 2025
Orbit: 775 x 790 km, 98.5° (Epoch: 14 June)

Event Time Altitude Azimuth Distance (km) Brightness Sun altitude
Exits shadow 20:03:00 - 135° (SE) 2,394 5.4 -7.5°
Reaches altitude 10° 20:03:11 10° 135° (SE) 2,326 5.3 -7.5°
Maximum altitude 20:07:57 41° 66° (ENE) 1,118 4.2 -8.1°
Drops below altitude 10° 20:12:45 10° 358° (N) 2,337 6.8 -8.7°
Sets 20:15:10 0° 351° (N) 3,268 7.8 -8.9°
